Location: ?????????
(53.2086°N, 54.0693°E)
Time: 20:17:19
(UTC+00:00)

Cosmos 2279 Rocket - Pass Details

Date: 08 December 2019
Orbit: 964 x 979 km, 82.9° (Epoch: 26 January)

Event Time Altitude Azimuth Distance (km) Brightness Sun altitude
Rises 12:50:48 0° 350° (N) 3,687 6.8 -6.3°
Reaches altitude 10° 12:53:21 10° 354° (N) 2,737 6.1 -6.6°
Maximum altitude 12:59:35 64° 75° (ENE) 1,081 4.0 -7.4°
Drops below altitude 10° 13:05:48 10° 157° (SSE) 2,725 6.4 -8.3°
Sets 13:08:20 0° 161° (SSE) 3,670 7.1 -8.6°
